Regional Weather Roundup
Issued by NWS

Home | Current Version | Previous Version | Text Only | Print | Product List | Glossary On
Versions: 1 2 3 4 5 6 7 8 9 10 11 12 13 14 15 16 17 18 19 20 21 22 23 24 25 26 27 28 29 30 31 32 33 34 35 36 37 38 39 40 41 42 43 44 45 46 47 48 49 50
000
ASUS46 KPQR 240510
RWROR

OREGON REGIONAL WEATHER ROUNDUP
NATIONAL WEATHER SERVICE PORTLAND OR
1000 PM PDT TUE SEP 23 2014

NOTE: "FAIR" INDICATES FEW OR NO CLOUDS BELOW 12,000 FEET WITH
NO SIGNIFICANT WEATHER AND/OR OBSTRUCTIONS TO VISIBILITY.

ORZ001>013-240600-
NORTHWEST OREGON


CITY           SKY/WX    TMP DP  RH WIND       PRES   REMARKS
ASTORIA        RAIN      64  61  90 S15G23    29.67R FOG
NEWPORT        HVY RAIN  61  61 100 S20G28    29.78R
PORTLAND       LGT RAIN  64  61  90 E8        29.71F
VANCOUVER WA   LGT RAIN  64  60  87 CALM      29.71F
SCAPPOOSE      LGT RAIN  62  61  96 CALM      29.70F FOG
HILLSBORO      LGT RAIN  61  61 100 W3        29.71S
AURORA         LGT RAIN  63  61  93 NE5       29.72F
MCMINNVILLE    LGT RAIN  62  61  96 W8        29.74R
SALEM          LGT RAIN  64  62  93 W7        29.72R
CORVALLIS      CLOUDY    63  61  94 CALM      29.76R
EUGENE         CLOUDY    64  60  87 CALM      29.75R
$$

ORZ021-028-240600-
SOUTHWEST OREGON


CITY           SKY/WX    TMP DP  RH WIND       PRES   REMARKS
NORTH BEND     CLOUDY    61  61 100 SW14G22   29.79R
BROOKINGS      CLOUDY    63  62  96 S12       29.85S
ROSEBURG       CLOUDY    79  55  43 S7        29.72S
SEXTON SUMMIT  CLOUDY    59  55  87 S16G24    29.89R
MEDFORD        CLOUDY    75  56  51 W6        29.78S
$$

ORZ009-041-240600-
COLUMBIA GORGE


CITY           SKY/WX    TMP DP  RH WIND       PRES   REMARKS
TROUTDALE      LGT RAIN  66  58  75 E15       29.70F
THE DALLES     CLOUDY    67  56  67 W3        29.76F
$$

ORZ029>031-042>050-061>064-240600-
EASTERN OREGON


CITY           SKY/WX    TMP DP  RH WIND       PRES   REMARKS
REDMOND        CLOUDY    71  37  28 S7        29.82S
BEND           MOCLDY    68  37  32 S7        29.87R
KLAMATH FALLS  PTCLDY    60  37  42 SE12      29.97S
LAKEVIEW       CLEAR     55  37  50 SE9       30.05R
HERMISTON      CLOUDY    68  55  63 CALM      29.76F
PENDLETON      CLOUDY    66  54  65 CALM      29.79F
JOHN DAY       MOCLDY    66  45  45 E8        29.92S
MEACHAM        MOCLDY    57  52  83 CALM      29.90F
LA GRANDE      MOCLDY    72  45  37 S13       29.86F
BAKER CITY     MOCLDY    65  46  50 SE3       29.93R
BURNS          MOCLDY    55  41  59 NE5       29.97S
ROME             N/A     68  25  19 SE10      29.97S
ONTARIO        MOCLDY    64  52  64 W3        29.88S
$$



USA.gov is the U.S. government's official web portal to all federal, state and local government web resources and services.